Location: Dackenheim
(49.5215°N, 8.1854°E)
Time: 06:44:58
(UTC+00:00)

Meteor 2-15 - Pass Details

Date: 19 May 2025
Orbit: 935 x 956 km, 82.5° (Epoch: 22 June)

Event Time Altitude Azimuth Distance (km) Brightness Sun altitude
Rises 22:35:57 0° 348° (NNW) 3,629 9.1 -19.7°
Reaches altitude 10° 22:38:28 10° 346° (NNW) 2,676 8.0 -19.8°
Maximum altitude 22:44:32 71° 264° (W) 994 4.5 -20.0°
Enters shadow 22:47:15 34° 189° (S) 1,488 5.0 -20.0°
